Total_Precipitation_Accumulation
0.00 0.00 0.01 0.01 0.01 0.01 0.02 0.04 0.08 0.10 0.08 0.10 0.21 0.47 0.64 0.75 0.96 0.97 0.96 1.07 1.18 1.28 1.54 1.84 2.05 2.41 2.81 3.02 3.28 3.50 3.50 3.43 3.21 2.90 2.62 2.38 2.17 2.04 1.84 1.72 1.63 1.59 1.58 1.66
0.01 0.03 0.02 0.01 0.01 0.02 0.04 0.06 0.09 0.12 0.10 0.14 0.31 0.52 0.76 0.76 0.84 0.88 0.79 0.84 0.95 1.22 1.46 1.88 1.98 2.06 2.41 2.69 3.01 3.26 3.46 3.37 3.05 2.68 2.44 2.31 2.22 1.92 1.67 1.65 1.61 1.61 1.70 1.71
0.01 0.02 0.02 0.01 0.02 0.03 0.06 0.07 0.09 0.09 0.10 0.20 0.32 0.69 0.93 0.80 0.75 0.79 0.78 0.84 0.97 1.31 1.75 1.99 1.95 1.91 2.08 2.32 2.43 2.54 2.67 2.58 2.36 2.27 2.23 2.19 2.16 1.89 1.80 1.86 1.88 1.85 1.90 1.86
0.01 0.01 0.02 0.03 0.04 0.04 0.08 0.06 0.05 0.06 0.12 0.30 0.32 0.75 1.15 0.97 0.78 0.83 0.89 0.85 1.16 1.47 1.47 1.52 1.65 1.76 1.87 2.01 2.17 2.28 2.27 2.09 1.85 1.85 1.98 2.02 1.94 1.89 2.04 2.25 2.15 1.93 1.77 1.64
0.03 0.03 0.03 0.04 0.04 0.04 0.06 0.05 0.06 0.08 0.12 0.27 0.34 0.54 0.99 1.01 1.02 0.91 0.86 0.94 1.21 1.23 1.13 1.14 1.27 1.41 1.45 1.61 1.76 1.90 1.99 1.89 1.74 1.70 1.75 1.85 1.83 1.79 1.79 1.78 1.74 1.61 1.44 1.24
0.04 0.04 0.04 0.03 0.03 0.03 0.05 0.06 0.11 0.17 0.28 0.59 0.43 0.44 0.84 1.00 0.87 0.72 0.79 0.84 0.98 0.97 0.93 0.97 1.01 1.09 1.17 1.26 1.28 1.28 1.42 1.48 1.46 1.45 1.47 1.49 1.46 1.39 1.30 1.20 1.17 1.09 1.00 0.83
0.09 0.10 0.07 0.05 0.04 0.05 0.05 0.09 0.36 0.68 0.91 0.93 0.48 0.53 0.93 0.80 0.60 0.61 0.74 0.74 0.69 0.67 0.68 0.76 0.77 0.80 0.86 0.91 0.91 0.94 1.05 1.18 1.16 1.09 1.10 1.12 1.08 1.02 0.95 0.92 0.87 0.82 0.75 0.64
0.16 0.21 0.12 0.07 0.06 0.07 0.08 0.09 0.29 0.51 0.58 0.65 0.56 0.88 1.27 0.83 0.62 0.66 0.67 0.62 0.55 0.53 0.52 0.60 0.67 0.72 0.71 0.69 0.72 0.76 0.81 0.87 0.86 0.80 0.80 0.79 0.82 0.80 0.74 0.73 0.63 0.59 0.60 0.60
0.11 0.11 0.07 0.07 0.10 0.09 0.08 0.07 0.11 0.23 0.26 0.39 0.62 0.92 0.99 0.59 0.51 0.57 0.56 0.53 0.53 0.53 0.49 0.49 0.51 0.54 0.53 0.50 0.51 0.57 0.67 0.72 0.75 0.73 0.69 0.64 0.64 0.62 0.57 0.52 0.49 0.46 0.48 0.51
0.04 0.06 0.07 0.07 0.08 0.10 0.09 0.09 0.13 0.18 0.26 0.40 0.55 0.85 0.94 0.64 0.52 0.38 0.30 0.26 0.26 0.26 0.27 0.25 0.26 0.26 0.26 0.30 0.38 0.46 0.50 0.51 0.54 0.55 0.57 0.56 0.53 0.47 0.41 0.37 0.37 0.37 0.38 0.42
0.04 0.04 0.07 0.08 0.10 0.12 0.12 0.10 0.11 0.12 0.14 0.27 0.53 0.69 0.50 0.42 0.36 0.32 0.25 0.18 0.17 0.14 0.15 0.19 0.20 0.23 0.24 0.28 0.37 0.46 0.48 0.48 0.50 0.49 0.49 0.48 0.45 0.43 0.37 0.32 0.31 0.32 0.34 0.38
0.03 0.03 0.05 0.11 0.16 0.14 0.13 0.10 0.10 0.13 0.12 0.15 0.27 0.38 0.23 0.25 0.25 0.22 0.21 0.19 0.20 0.19 0.18 0.20 0.20 0.26 0.30 0.30 0.31 0.37 0.41 0.46 0.55 0.65 0.73 0.73 0.64 0.55 0.46 0.36 0.32 0.31 0.34 0.38
0.04 0.05 0.09 0.24 0.35 0.24 0.15 0.11 0.11 0.12 0.09 0.12 0.22 0.34 0.19 0.15 0.16 0.18 0.36 0.44 0.35 0.23 0.16 0.17 0.18 0.23 0.28 0.32 0.34 0.37 0.40 0.44 0.53 0.69 0.93 1.04 0.96 0.82 0.64 0.45 0.31 0.27 0.27 0.29
0.07 0.04 0.08 0.25 0.37 0.30 0.22 0.14 0.11 0.10 0.11 0.12 0.16 0.31 0.26 0.17 0.13 0.11 0.14 0.16 0.19 0.16 0.12 0.12 0.13 0.18 0.24 0.31 0.38 0.43 0.45 0.44 0.51 0.64 0.80 0.86 0.80 0.70 0.57 0.40 0.27 0.22 0.21 0.24
0.11 0.06 0.05 0.08 0.15 0.17 0.19 0.18 0.15 0.12 0.10 0.15 0.14 0.21 0.20 0.14 0.14 0.15 0.16 0.17 0.17 0.16 0.12 0.11 0.13 0.18 0.21 0.25 0.32 0.33 0.29 0.24 0.30 0.41 0.47 0.53 0.48 0.38 0.33 0.29 0.25 0.22 0.23 0.25
0.16 0.16 0.12 0.11 0.12 0.16 0.20 0.20 0.15 0.09 0.07 0.07 0.08 0.11 0.10 0.13 0.17 0.20 0.21 0.18 0.16 0.15 0.10 0.10 0.14 0.18 0.19 0.18 0.19 0.15 0.13 0.13 0.18 0.26 0.31 0.38 0.41 0.34 0.27 0.24 0.21 0.19 0.22 0.26
0.17 0.22 0.19 0.15 0.15 0.17 0.24 0.23 0.16 0.09 0.08 0.11 0.13 0.13 0.11 0.12 0.15 0.18 0.18 0.16 0.16 0.18 0.09 0.07 0.09 0.10 0.08 0.07 0.08 0.09 0.10 0.14 0.20 0.26 0.31 0.39 0.42 0.39 0.34 0.26 0.24 0.24 0.26 0.28
0.28 0.29 0.24 0.18 0.22 0.33 0.22 0.17 0.17 0.16 0.15 0.15 0.18 0.16 0.17 0.18 0.20 0.20 0.22 0.20 0.16 0.15 0.11 0.06 0.06 0.05 0.05 0.05 0.07 0.11 0.15 0.20 0.25 0.30 0.36 0.42 0.47 0.43 0.38 0.37 0.39 0.40 0.39 0.37
0.25 0.36 0.33 0.27 0.31 0.29 0.22 0.15 0.18 0.21 0.24 0.21 0.23 0.23 0.24 0.24 0.25 0.24 0.19 0.16 0.14 0.11 0.12 0.11 0.08 0.08 0.09 0.08 0.09 0.15 0.21 0.26 0.32 0.40 0.49 0.54 0.59 0.58 0.56 0.56 0.52 0.54 0.54 0.48
0.20 0.32 0.40 0.33 0.37 0.37 0.30 0.24 0.22 0.25 0.48 0.38 0.34 0.31 0.27 0.28 0.31 0.27 0.22 0.23 0.22 0.14 0.12 0.12 0.10 0.10 0.11 0.13 0.17 0.24 0.26 0.30 0.38 0.46 0.58 0.68 0.73 0.76 0.74 0.76 0.72 0.66 0.65 0.58
0.36 0.43 0.46 0.43 0.42 0.41 0.36 0.32 0.28 0.45 0.60 0.42 0.32 0.30 0.30 0.39 0.38 0.35 0.28 0.25 0.23 0.16 0.16 0.14 0.12 0.15 0.18 0.23 0.29 0.35 0.41 0.47 0.47 0.50 0.57 0.68 0.78 0.84 0.88 0.93 0.88 0.83 0.79 0.77
0.45 0.53 0.52 0.51 0.61 0.63 0.48 0.45 0.57 0.65 0.53 0.55 0.49 0.46 0.45 0.41 0.32 0.27 0.25 0.22 0.20 0.18 0.21 0.21 0.19 0.24 0.28 0.33 0.39 0.45 0.49 0.46 0.51 0.55 0.61 0.65 0.71 0.70 0.74 0.91 0.94 0.94 0.95 0.91
0.39 0.49 0.55 0.61 0.67 0.61 0.51 0.53 0.62 0.65 0.64 0.60 0.56 0.50 0.43 0.40 0.32 0.22 0.17 0.15 0.14 0.15 0.17 0.18 0.20 0.27 0.34 0.42 0.50 0.57 0.55 0.58 0.60 0.64 0.72 0.77 0.77 0.79 0.86 0.92 0.95 0.98 1.02 0.99
0.41 0.41 0.52 0.69 0.71 0.68 0.59 0.47 0.40 0.43 0.49 0.50 0.45 0.43 0.37 0.33 0.32 0.26 0.19 0.15 0.13 0.12 0.12 0.14 0.19 0.25 0.31 0.37 0.46 0.58 0.67 0.75 0.79 0.83 0.84 0.86 0.90 0.87 0.87 0.96 1.00 1.04 1.08 1.12
0.47 0.41 0.53 0.71 0.65 0.52 0.58 0.60 0.50 0.50 0.57 0.55 0.45 0.40 0.36 0.31 0.31 0.22 0.17 0.15 0.13 0.12 0.12 0.15 0.22 0.29 0.35 0.41 0.48 0.56 0.64 0.72 0.77 0.81 0.82 0.81 0.83 0.88 0.92 0.96 1.00 0.99 1.04 1.01
0.45 0.49 0.56 0.66 0.63 0.58 0.55 0.51 0.46 0.50 0.49 0.49 0.50 0.45 0.32 0.25 0.25 0.19 0.14 0.13 0.13 0.15 0.18 0.23 0.27 0.32 0.37 0.44 0.54 0.61 0.69 0.79 0.86 0.89 0.88 0.82 0.79 0.86 0.92 0.98 0.97 0.88 0.83 0.79